Tracking 30995 objects as of 5-Jul-2025
HD Live streaming from Space Station
objects crossing your sky now

STARLINK-31473

Track STARLINK-31473 now!
10-day predictions
STARLINK-31473 is classified as:


NORAD ID: 59339
Int'l Code: 2024-057V
Perigee: 489.1 km
Apogee: 491.3 km
Inclination: 43.0 °
Period: 94.3 minutes
Semi major axis: 6861 km
RCS: Unknown
Launch date: March 25, 2024
Source: United States (US)
Launch site: AIR FORCE EASTERN TEST RANGE (AFETR)
Your satellite tracking list
Your tracking list is empty




NASA's NSSDC Master Catalog

Two Line Element Set (TLE):
1 59339U 24057V   25185.96010134  .00000161  00000-0  15382-4 0  9993
2 59339  43.0017 145.9849 0001538 265.8740  94.1936 15.27576843 71957
Source of the keplerian elements: AFSPC